Location: Banios
(43.0451°N, 0.2335°E)
Time: 06:01:41
(UTC+00:00)

N. Korean satellite - Pass Details

Date: 09 December 2021
Orbit: 447 x 491 km, 97.3° (Epoch: 25 January)

Event Time Altitude Azimuth Distance (km) Brightness Sun altitude
Rises 05:33:55 0° 6° (N) 2,460 10.1 -18.4°
Reaches altitude 10° 05:35:59 10° 1° (N) 1,582 9.0 -18.1°
Maximum altitude 05:39:16 50° 285° (WNW) 579 6.5 -17.5°
Drops below altitude 10° 05:42:33 10° 210° (SSW) 1,574 9.0 -16.9°
Sets 05:44:36 0° 205° (SSW) 2,445 10.0 -16.6°
